Location: Akdamlar
(36.8729°N, 30.5187°E)
Time: 20:48:03
(UTC+00:00)

CSL-04 Debris - Pass Details

Date: 18 September 2020
Orbit: 827 x 847 km, 98.9° (Epoch: 24 October)

Event Time Altitude Azimuth Distance (km) Brightness Sun altitude
Rises 16:31:44 0° 152° (SSE) 3,359 7.0 -7.1°
Reaches altitude 10° 16:34:08 10° 147° (SSE) 2,427 6.2 -7.5°
Maximum altitude 16:39:20 53° 72° (ENE) 1,014 4.3 -8.6°
Drops below altitude 10° 16:44:33 10° 357° (N) 2,437 6.8 -9.6°
Sets 16:46:57 0° 353° (N) 3,374 7.6 -10.1°
